Temp
58 52 48 54 58 59 58 56 55 59 66 63 62 62 62 65 67 67 69 72 73 74 76 78 78 78 77 78 74 73 72 72 72 71 71 71 71 72 74 74 76 75 75 75
54 48 59 63 62 60 57 54 53 65 68 62 59 58 60 63 65 68 69 71 73 75 75 76 77 77 77 76 74 73 73 71 73 73 72 73 72 73 73 74 75 76 75 75
52 59 66 64 60 59 53 51 53 58 66 62 58 55 56 62 65 68 70 73 73 75 74 75 76 76 77 75 74 74 73 73 74 72 72 71 72 73 73 74 75 75 76 76
56 64 65 60 59 59 44 62 63 60 55 49 57 46 51 58 60 64 65 67 69 72 76 77 76 76 76 76 77 76 75 73 74 72 72 71 71 71 72 73 75 74 76 76
56 60 59 57 60 63 57 64 60 59 52 48 52 49 50 56 57 61 65 67 68 70 74 77 78 77 77 78 77 77 75 74 74 73 73 72 71 72 73 74 74 74 75 76
58 63 61 60 65 65 66 58 53 49 47 42 49 49 49 53 57 64 67 69 70 70 72 75 79 79 78 79 78 77 74 73 73 73 71 71 72 71 71 72 73 74 74 75
54 55 59 62 56 58 57 49 39 39 39 40 42 49 52 59 63 64 66 69 72 73 73 74 76 77 76 76 77 76 73 72 73 73 72 71 72 72 72 72 73 73 73 74
43 44 54 61 53 51 49 48 41 35 35 41 45 45 53 62 64 66 67 69 72 72 75 75 78 77 77 77 76 76 73 73 73 73 72 71 71 74 73 73 73 74 75 76
42 43 58 60 59 55 49 45 46 40 36 41 44 51 59 62 63 64 65 67 68 71 73 75 79 79 78 77 76 75 74 74 74 74 73 71 71 71 73 72 73 74 75 78
42 40 48 55 58 57 52 50 44 41 36 35 41 42 46 53 57 61 62 62 65 68 71 74 77 79 80 79 79 77 76 75 75 76 75 74 72 72 73 73 73 74 75 76
39 42 45 49 44 42 45 42 40 40 38 36 36 40 53 52 55 57 61 64 65 65 67 72 77 79 81 80 80 78 77 75 75 76 76 75 73 71 71 73 74 75 75 75
44 38 34 37 49 51 46 41 37 38 36 35 37 41 57 56 58 60 61 63 66 67 65 69 74 78 80 79 79 78 78 77 77 76 76 76 75 73 72 72 73 75 75 74
46 36 32 35 42 45 43 45 36 35 34 33 37 41 58 56 56 58 57 60 65 66 66 65 67 72 78 78 78 78 78 76 78 76 77 76 75 74 73 73 72 73 74 74
49 34 35 33 35 39 39 44 44 37 34 34 37 42 49 50 51 53 54 58 63 65 64 65 64 65 66 69 73 76 78 74 72 72 73 73 74 74 75 75 73 73 74 74
42 33 34 36 41 42 42 44 44 39 40 37 42 43 46 48 50 52 54 56 59 60 65 66 65 65 66 68 69 72 72 73 72 72 71 71 72 75 74 74 74 74 73 75
38 33 35 36 42 41 39 43 44 44 45 43 44 43 48 51 53 52 52 53 55 59 62 65 65 64 65 67 69 71 71 72 72 71 72 72 72 74 73 73 73 73 73 74
34 31 29 26 35 37 33 38 42 44 44 43 40 41 47 46 49 50 50 52 55 57 62 63 63 62 64 65 68 68 70 70 72 71 73 72 72 72 73 73 73 72 73 74
34 30 28 26 27 23 36 43 45 44 45 45 44 45 46 47 49 51 53 51 54 56 58 61 63 62 62 64 66 67 69 69 70 71 73 72 72 71 71 72 72 72 74 73
35 31 26 25 24 32 38 39 38 36 39 43 41 43 45 46 50 52 52 52 53 56 58 61 63 63 62 61 65 65 65 64 65 65 67 71 72 71 72 71 72 71 73 74
36 33 29 27 26 26 33 42 47 44 32 41 41 40 41 42 39 46 50 51 52 55 56 56 60 63 62 61 61 62 62 61 61 62 64 65 67 69 72 72 72 71 72 74
25 27 26 27 24 31 40 43 45 32 33 40 41 40 40 37 42 45 49 50 52 53 54 55 57 60 61 61 60 60 60 59 61 62 63 64 65 66 69 72 72 72 72 72
27 24 26 30 31 27 43 42 36 37 38 40 42 44 44 44 45 46 47 48 50 49 51 53 52 57 61 61 60 59 57 59 60 61 62 63 64 65 67 69 73 72 71 71
25 30 25 28 28 37 40 39 42 41 40 43 45 46 46 45 44 45 46 47 48 49 50 51 52 54 59 60 59 57 58 59 59 60 60 62 63 65 65 66 68 72 72 71
31 36 34 30 35 36 39 42 43 44 45 47 47 47 47 45 46 45 47 48 49 50 50 51 51 51 55 58 57 57 57 58 58 58 58 60 61 62 63 65 68 72 74 73
32 38 33 30 35 37 40 41 42 44 48 48 48 48 47 46 46 47 47 47 49 50 51 51 50 52 55 56 55 57 56 56 56 56 58 58 61 61 62 64 65 70 76 74
35 33 29 30 37 37 39 43 44 45 46 47 47 46 48 47 45 47 46 48 48 49 51 50 50 53 54 53 54 54 55 54 53 53 56 56 58 59 60 63 65 59 56 54
MSLP
1010.49 1011.05 1010.87 1010.93 1010.77 1010.42 1010.31 1010.37 1010.34 1009.88 1009.63 1009.92 1010.05 1010.04 1010.81 1011.18 1011.66 1011.77 1011.81 1012.13 1012.49 1012.72 1013.14 1013.79 1014.26 1014.86 1015.41 1015.93 1016.61 1017.04 1017.24 1017.57 1017.97 1018.45 1018.98 1019.39 1019.35 1019.44 1019.63 1019.73 1019.87 1020.21 1020.55 1020.74
1010.81 1010.70 1010.47 1010.38 1010.49 1010.44 1010.35 1010.20 1010.32 1009.84 1009.69 1009.93 1009.95 1010.48 1010.97 1011.13 1011.23 1011.38 1011.38 1011.80 1012.14 1012.60 1013.02 1013.51 1014.15 1014.67 1015.11 1015.56 1015.99 1016.82 1017.05 1017.42 1017.78 1017.96 1018.21 1018.55 1018.81 1019.15 1019.27 1019.61 1019.83 1020.07 1020.38 1020.49
1010.11 1009.75 1009.84 1010.07 1010.25 1010.31 1010.30 1010.35 1010.24 1010.24 1009.95 1010.19 1010.53 1011.01 1011.46 1011.45 1011.30 1011.36 1011.51 1011.77 1011.90 1012.12 1012.51 1013.01 1013.65 1014.36 1014.75 1015.44 1015.85 1016.27 1016.67 1016.93 1017.53 1017.95 1018.15 1018.47 1018.79 1019.15 1019.53 1019.79 1019.81 1019.87 1020.07 1020.41
1009.59 1009.19 1009.33 1009.61 1009.75 1009.90 1010.19 1010.06 1010.17 1010.60 1010.88 1011.07 1011.08 1011.82 1011.78 1011.69 1011.54 1011.41 1011.42 1011.45 1011.58 1011.81 1012.13 1012.49 1013.13 1013.79 1014.33 1014.76 1015.27 1015.75 1016.38 1016.87 1017.38 1018.04 1018.17 1018.21 1018.54 1019.06 1019.25 1019.34 1019.52 1019.72 1019.90 1020.15
1009.23 1009.03 1009.16 1009.30 1009.29 1009.49 1009.85 1009.95 1010.43 1010.85 1011.52 1011.81 1011.83 1012.25 1011.97 1011.81 1011.77 1011.00 1010.86 1011.17 1011.15 1011.41 1011.56 1011.94 1012.39 1013.08 1013.52 1014.13 1014.82 1015.40 1016.02 1016.61 1017.05 1017.75 1017.99 1018.16 1018.53 1018.68 1018.91 1019.28 1019.47 1019.74 1019.93 1020.06
1009.13 1008.76 1008.89 1008.80 1008.78 1009.07 1009.54 1010.65 1011.55 1012.23 1012.75 1013.15 1012.31 1012.42 1012.19 1012.06 1010.97 1010.03 1010.41 1010.45 1010.76 1010.89 1011.04 1011.47 1011.89 1012.43 1013.07 1013.67 1014.27 1014.84 1015.70 1016.02 1016.59 1017.07 1017.71 1017.97 1018.15 1018.55 1018.92 1019.34 1019.55 1019.75 1019.90 1020.02
1010.07 1010.06 1009.59 1009.25 1009.29 1009.59 1010.16 1011.63 1013.13 1014.14 1014.25 1014.01 1012.92 1012.61 1012.06 1011.41 1010.51 1009.95 1009.58 1009.78 1010.04 1010.26 1010.63 1011.03 1011.18 1011.75 1012.42 1013.08 1013.65 1014.37 1015.10 1015.83 1016.03 1016.67 1017.17 1017.64 1017.80 1017.89 1018.37 1018.79 1019.12 1019.51 1019.78 1019.87
1011.85 1011.59 1010.77 1010.19 1010.18 1010.28 1010.99 1011.75 1013.14 1014.23 1015.01 1014.37 1013.42 1012.53 1012.07 1011.38 1010.63 1009.51 1009.42 1009.58 1009.79 1010.06 1010.37 1010.63 1010.64 1011.02 1011.52 1012.27 1013.01 1013.84 1014.43 1015.04 1015.64 1016.01 1016.59 1017.09 1017.57 1017.67 1017.77 1018.15 1018.63 1018.88 1019.19 1019.29
1013.09 1012.91 1011.92 1011.32 1011.27 1011.39 1012.00 1012.74 1013.55 1014.75 1015.69 1015.09 1014.32 1012.78 1012.11 1011.80 1011.15 1010.80 1010.48 1010.21 1010.03 1009.83 1009.59 1009.73 1010.05 1010.33 1010.92 1011.60 1012.07 1012.89 1013.65 1014.40 1015.00 1015.19 1015.94 1016.55 1017.11 1017.44 1017.49 1017.67 1018.07 1018.39 1018.69 1018.88
1013.92 1014.15 1013.51 1012.89 1012.31 1012.43 1012.67 1013.89 1014.64 1015.41 1016.55 1016.42 1015.42 1014.52 1014.19 1013.41 1012.94 1012.29 1011.62 1011.39 1010.84 1010.25 1009.73 1009.32 1008.93 1008.97 1009.53 1010.27 1011.23 1012.20 1012.81 1013.26 1013.87 1014.61 1015.11 1015.86 1016.38 1016.86 1017.17 1017.39 1017.70 1017.99 1018.19 1018.43
1014.61 1014.84 1015.26 1014.61 1015.59 1015.36 1014.70 1015.32 1016.15 1016.64 1017.11 1017.06 1016.61 1016.20 1015.50 1015.11 1014.67 1013.85 1013.00 1012.11 1011.47 1010.70 1009.85 1008.96 1008.37 1008.38 1008.40 1009.21 1010.19 1011.05 1012.02 1012.75 1013.37 1013.98 1014.57 1015.09 1015.79 1016.43 1016.89 1017.09 1017.16 1017.37 1017.79 1018.09
1015.95 1016.68 1017.57 1017.65 1017.16 1016.69 1016.57 1017.26 1017.68 1017.89 1018.66 1017.97 1017.03 1016.74 1015.84 1015.53 1015.31 1015.03 1014.13 1013.37 1012.00 1010.89 1009.91 1008.46 1008.24 1008.41 1008.63 1008.90 1009.49 1010.04 1010.95 1011.95 1012.44 1013.15 1013.93 1014.31 1014.88 1015.55 1016.36 1016.71 1016.77 1016.93 1017.26 1017.57
1016.54 1018.01 1018.83 1019.00 1018.41 1017.91 1018.21 1018.26 1018.44 1018.74 1018.78 1018.82 1018.13 1017.38 1016.29 1016.24 1015.87 1015.67 1015.37 1014.35 1013.15 1011.87 1010.50 1009.59 1008.86 1008.80 1008.60 1008.74 1009.22 1009.85 1010.52 1010.97 1011.95 1012.82 1013.27 1014.11 1014.48 1015.04 1015.44 1015.83 1016.31 1016.58 1016.79 1017.14
1017.31 1019.15 1019.19 1019.27 1019.28 1019.41 1019.55 1019.21 1018.81 1019.01 1019.27 1019.36 1018.79 1018.00 1017.41 1017.07 1017.15 1016.75 1016.17 1015.51 1014.23 1013.09 1012.20 1011.29 1010.54 1010.22 1009.79 1009.31 1009.24 1009.55 1010.23 1010.98 1011.69 1012.40 1013.23 1013.56 1014.03 1014.31 1014.83 1015.19 1015.48 1015.99 1016.22 1016.60
1018.89 1020.36 1020.39 1020.41 1020.18 1019.94 1019.93 1019.74 1019.49 1019.28 1019.03 1019.08 1018.81 1018.96 1018.62 1018.55 1018.17 1018.00 1017.57 1016.44 1015.27 1014.21 1013.22 1012.56 1012.07 1011.47 1011.02 1010.58 1010.23 1009.98 1010.17 1010.71 1011.22 1011.86 1012.45 1012.87 1013.43 1013.81 1014.26 1014.78 1015.17 1015.46 1015.79 1015.90
1020.61 1021.51 1021.54 1021.75 1021.20 1020.79 1020.41 1020.06 1019.85 1019.61 1019.31 1019.18 1018.94 1019.65 1019.65 1019.16 1018.93 1018.42 1018.38 1017.65 1016.65 1015.76 1014.79 1013.93 1013.33 1012.53 1012.03 1011.52 1011.03 1010.68 1010.66 1010.83 1011.14 1011.73 1011.93 1012.40 1012.68 1013.14 1013.46 1013.91 1014.37 1014.83 1015.07 1015.48
1021.94 1022.43 1022.97 1022.93 1022.21 1021.59 1021.33 1020.55 1020.16 1019.95 1019.95 1020.09 1020.31 1020.57 1020.54 1019.78 1019.60 1019.42 1018.98 1018.66 1017.95 1017.02 1016.02 1015.15 1014.57 1014.07 1013.10 1012.29 1011.49 1011.34 1011.07 1011.19 1011.23 1011.54 1011.78 1011.96 1012.17 1012.66 1012.90 1013.37 1013.83 1014.15 1014.45 1014.63
1022.80 1023.33 1023.57 1023.89 1023.10 1022.65 1021.74 1021.20 1020.90 1020.73 1020.83 1021.05 1021.05 1021.29 1021.32 1021.07 1020.10 1019.77 1019.81 1019.31 1018.79 1018.08 1017.19 1016.19 1015.56 1015.19 1014.46 1013.34 1012.39 1012.01 1011.66 1011.55 1011.47 1011.69 1011.56 1011.82 1012.07 1012.47 1012.73 1012.97 1013.14 1013.31 1013.57 1013.93
1023.10 1023.68 1024.52 1024.56 1024.03 1023.32 1022.56 1022.59 1022.34 1022.33 1022.31 1022.43 1022.35 1022.30 1022.22 1021.74 1020.23 1019.57 1019.87 1019.91 1019.80 1019.12 1018.31 1017.45 1016.48 1015.79 1015.45 1014.89 1013.51 1012.87 1012.61 1012.42 1012.09 1012.07 1011.99 1011.94 1012.05 1012.13 1012.20 1012.18 1012.45 1012.68 1012.93 1013.16
1023.74 1023.80 1024.44 1025.07 1024.57 1023.90 1023.58 1023.12 1022.87 1023.15 1023.35 1023.37 1023.49 1023.29 1022.98 1022.43 1021.62 1020.42 1019.90 1020.16 1019.83 1019.48 1018.88 1018.09 1017.17 1016.39 1015.89 1015.36 1014.49 1013.11 1013.21 1012.98 1012.48 1012.49 1012.42 1012.42 1012.17 1011.93 1011.55 1011.57 1011.80 1012.01 1012.11 1012.20
1024.80 1025.13 1025.24 1025.27 1024.83 1023.90 1023.35 1023.01 1022.91 1023.84 1024.14 1023.71 1023.81 1023.73 1023.53 1023.24 1022.89 1021.62 1020.98 1020.23 1020.42 1019.83 1019.31 1018.49 1017.64 1016.62 1015.99 1015.65 1015.01 1014.30 1013.56 1013.00 1012.79 1012.58 1012.67 1012.40 1011.94 1011.70 1011.37 1010.95 1010.91 1011.07 1011.35 1011.65
1025.49 1025.66 1025.75 1025.57 1025.11 1024.27 1023.19 1023.23 1023.72 1023.79 1023.62 1023.49 1023.23 1023.13 1022.89 1022.63 1022.31 1022.15 1021.18 1020.49 1019.93 1019.35 1018.67 1018.49 1018.01 1016.87 1015.88 1015.47 1015.15 1014.45 1013.55 1012.86 1012.68 1012.53 1012.32 1012.22 1011.66 1011.43 1011.25 1010.92 1010.05 1010.15 1010.55 1010.81
1025.70 1025.22 1025.26 1025.46 1024.63 1023.76 1023.56 1023.71 1023.76 1023.80 1023.79 1023.63 1023.19 1022.81 1022.64 1022.25 1021.72 1021.56 1021.02 1020.11 1019.54 1018.98 1018.49 1018.33 1017.85 1016.95 1015.91 1015.53 1015.31 1014.84 1013.69 1013.39 1012.82 1012.61 1012.32 1011.82 1011.23 1011.45 1011.14 1010.51 1009.82 1009.59 1009.63 1009.70
1025.01 1024.77 1024.91 1024.96 1023.80 1023.73 1023.73 1023.65 1023.61 1023.43 1023.29 1023.04 1022.95 1022.63 1022.38 1021.93 1021.36 1020.69 1020.36 1019.63 1018.73 1018.50 1017.97 1017.43 1017.09 1016.27 1015.53 1015.38 1015.15 1014.73 1014.14 1013.30 1013.01 1012.45 1012.25 1011.63 1011.77 1010.87 1010.39 1009.75 1009.52 1009.03 1008.40 1008.40
1024.26 1024.34 1024.44 1024.35 1023.28 1023.20 1022.91 1022.83 1022.73 1022.69 1022.40 1022.23 1022.09 1022.03 1021.87 1021.47 1020.87 1020.35 1019.71 1019.29 1018.51 1017.47 1017.19 1016.66 1016.09 1015.61 1014.78 1014.62 1014.53 1014.21 1013.84 1013.49 1012.94 1012.23 1011.73 1011.68 1011.53 1011.02 1009.67 1009.47 1009.11 1008.41 1006.94 1006.80
1022.98 1022.63 1023.07 1022.30 1021.73 1021.76 1021.81 1021.66 1021.87 1022.09 1021.80 1021.58 1021.50 1021.32 1021.28 1021.08 1020.43 1019.87 1019.19 1018.71 1018.01 1016.73 1015.87 1015.60 1015.38 1014.88 1014.26 1014.27 1013.99 1013.73 1013.56 1013.91 1013.27 1011.85 1011.56 1011.59 1010.89 1010.52 1009.87 1008.16 1007.76 1006.91 1006.47 1005.99
Wind_Speed
3 4 6 6 6 4 3 5 3 2 4 3 7 10 4 9 6 11 12 13 18 16 13 15 15 14 12 11 9 9 9 7 6 3 3 3 3 3 2 3 5 5 4 5
5 4 8 7 5 4 3 1 1 3 2 4 3 3 4 6 6 10 15 13 15 14 13 13 14 14 14 15 14 9 10 7 7 4 3 3 3 2 3 2 3 4 5 4
7 7 7 6 5 5 2 4 2 3 4 4 2 4 2 1 2 4 7 12 8 14 16 16 16 16 15 14 13 13 13 11 8 6 5 3 4 3 2 2 2 3 5 4
5 2 7 4 4 5 1 7 5 3 3 2 2 3 2 3 4 4 5 8 8 8 11 17 17 17 16 16 14 14 12 11 9 7 6 7 5 4 3 4 3 3 4 4
6 7 5 3 5 7 7 4 6 4 3 3 3 5 5 2 7 14 13 10 9 7 8 15 18 18 18 17 15 14 13 11 11 10 8 6 5 3 3 2 4 4 3 4
2 0 3 6 4 8 4 6 8 6 4 2 5 6 5 5 7 12 11 14 12 10 9 8 14 17 16 15 15 14 13 13 12 12 8 9 10 7 5 4 4 3 2 3
5 4 5 3 4 3 6 7 2 3 3 6 3 4 6 7 9 11 12 14 16 15 10 12 15 17 16 17 16 14 14 13 12 12 11 9 10 10 9 6 4 5 3 2
4 4 8 8 3 4 3 8 7 6 6 3 4 4 1 5 9 8 6 6 11 12 12 13 15 16 18 18 17 16 15 15 13 12 12 9 8 7 6 7 4 5 5 5
5 2 6 5 7 3 3 5 3 9 4 5 2 3 3 9 16 15 13 4 4 10 15 16 17 16 17 18 19 19 17 16 14 15 11 10 8 7 9 8 6 5 5 5
1 5 3 6 5 7 8 1 3 4 5 3 3 3 4 13 16 16 16 9 8 6 8 12 15 17 17 19 19 18 18 20 18 17 13 11 12 10 9 8 8 7 6 6
2 4 5 5 8 5 6 6 6 6 4 7 5 3 5 6 7 11 14 15 11 9 10 11 15 17 18 17 19 19 17 17 16 16 14 12 10 9 7 9 10 10 7 6
4 5 5 3 5 5 5 4 3 6 3 1 3 3 4 8 10 9 14 16 15 12 11 10 11 13 15 16 17 19 18 17 17 16 14 15 12 11 10 9 9 9 9 7
1 3 5 4 7 5 7 5 4 4 3 1 5 5 4 8 13 14 14 18 13 14 15 13 6 4 12 13 15 16 16 17 15 13 14 12 12 11 13 12 9 8 9 8
7 4 3 7 5 3 4 3 3 5 4 3 5 2 7 13 12 15 17 18 15 15 13 11 11 8 7 2 9 13 13 11 10 9 9 11 13 13 13 12 12 12 10 10
5 4 3 4 4 3 3 3 2 2 4 4 4 3 4 4 7 9 11 16 18 19 16 14 12 9 8 6 5 3 7 11 12 12 12 13 11 11 10 10 11 11 11 12
5 3 2 3 5 3 3 5 6 5 4 6 6 3 6 3 5 13 12 15 16 17 18 15 14 13 12 10 3 1 3 7 10 12 15 13 12 13 12 11 11 11 12 11
3 5 3 3 2 3 4 2 1 1 3 2 4 3 5 8 10 9 10 12 15 17 17 16 15 14 12 12 10 2 2 3 6 12 12 13 12 13 12 11 10 11 13 11
4 4 2 3 2 3 4 4 4 2 3 3 1 4 4 5 10 8 3 9 15 17 18 14 12 13 14 11 11 10 7 1 0 4 9 11 12 12 10 8 12 13 11 13
3 4 4 4 1 3 4 5 5 4 1 9 6 10 9 12 10 3 7 13 14 15 14 15 10 9 10 11 6 8 10 8 8 9 8 5 6 11 11 14 13 11 10 11
5 6 6 1 3 2 2 3 4 2 5 6 8 10 12 10 4 4 14 18 18 16 15 15 17 9 6 9 10 6 6 6 9 9 7 6 5 6 13 13 13 11 10 12
4 4 4 3 1 4 3 6 4 2 4 3 2 4 8 6 4 15 18 19 13 13 16 17 16 12 8 6 6 3 2 6 3 4 7 7 6 8 8 11 11 11 12 11
4 5 4 3 4 7 2 3 3 2 2 5 7 8 12 14 13 13 17 18 17 17 17 15 14 15 9 7 6 3 3 2 4 6 4 5 5 6 7 9 8 12 12 13
2 6 5 7 6 1 3 4 3 2 4 7 10 12 13 15 15 13 15 18 17 17 15 14 12 15 12 6 6 7 2 3 3 2 4 8 6 6 6 7 8 9 11 11
3 4 2 4 3 7 8 6 6 4 4 8 9 11 13 16 16 17 15 16 18 14 16 14 14 15 15 6 5 5 7 5 5 3 4 3 7 6 6 4 7 10 11 11
5 7 6 6 7 4 6 8 8 6 6 8 8 10 13 16 16 17 15 14 17 19 16 13 14 14 16 8 5 4 5 8 7 6 6 4 4 6 7 6 7 10 13 13
7 9 7 7 7 5 4 5 5 6 7 9 9 11 13 14 15 15 14 14 18 21 17 12 14 15 12 6 8 5 4 5 6 6 6 6 7 7 7 6 9 9 15 12
Wind_Direction
194 107 193 188 190 168 135 115 118 255 236 199 231 248 167 161 181 184 191 190 189 192 187 190 188 188 184 179 173 190 180 184 164 145 146 157 189 164 177 194 194 185 184 172
60 204 206 193 197 167 141 93 183 279 175 184 320 315 123 150 190 196 192 194 191 190 186 187 189 188 186 188 182 182 193 177 188 173 154 157 152 162 125 152 196 168 185 186
146 203 166 178 166 171 151 160 201 184 340 35 107 353 105 54 44 115 202 202 195 195 186 192 184 192 188 197 186 185 196 185 188 177 125 78 77 69 89 163 191 193 184 172
185 157 160 159 181 130 209 203 187 183 79 189 78 277 321 195 214 244 214 186 189 192 181 189 186 190 190 198 197 192 187 187 186 174 170 155 156 152 193 181 174 175 171 181
227 151 150 159 197 166 212 137 172 173 135 63 330 80 266 172 229 230 216 206 198 198 187 190 189 192 194 190 196 194 189 188 183 187 187 166 155 158 146 149 172 177 177 195
160 319 106 200 202 186 109 84 37 43 89 62 231 125 282 192 232 245 216 209 204 203 203 184 190 190 194 195 192 188 189 194 184 182 190 184 171 165 148 162 178 183 192 181
21 359 323 48 94 54 94 81 19 27 43 208 344 89 230 295 279 233 221 212 204 210 203 198 187 193 191 192 191 188 187 202 187 187 189 193 189 172 177 176 176 166 176 205
117 21 356 338 52 163 123 149 153 162 168 211 15 196 200 309 326 355 196 193 186 201 218 215 205 194 192 192 190 194 189 197 196 185 196 191 196 188 178 175 174 186 189 201
122 62 314 54 25 38 158 66 171 104 12 84 241 297 330 359 14 10 22 37 235 202 210 203 211 200 194 194 192 193 191 200 199 195 190 190 188 191 191 180 173 179 188 202
109 90 9 307 18 20 93 108 74 13 120 141 310 64 306 347 348 347 357 352 327 301 237 218 204 197 195 194 195 194 196 196 197 200 188 195 193 196 195 182 182 184 191 196
55 84 311 35 12 286 1 18 38 107 98 147 153 279 18 321 324 337 338 341 330 304 276 240 217 208 199 191 190 193 196 197 196 199 202 192 190 189 185 198 195 191 184 184
349 111 70 61 298 16 70 75 87 114 220 30 114 229 59 352 348 355 347 344 334 323 322 253 223 208 199 197 193 193 192 195 200 198 197 200 192 181 189 205 205 190 193 182
64 23 92 23 333 7 47 344 111 96 83 169 128 228 18 10 8 4 356 350 3 359 9 16 20 227 213 194 195 196 197 197 198 195 195 201 201 194 201 201 200 200 193 197
77 78 137 170 148 133 78 358 18 97 93 177 209 260 346 355 14 2 355 349 345 3 13 15 21 18 15 22 188 193 193 176 173 170 193 197 202 202 209 210 196 198 200 196
79 104 69 72 91 94 126 176 197 183 190 170 167 147 317 3 354 17 357 357 1 359 5 19 17 13 9 10 25 145 164 171 174 177 183 199 205 205 203 204 208 207 202 205
6 117 101 84 52 75 198 234 231 245 269 280 289 99 317 347 333 26 11 1 3 1 0 6 10 15 10 10 315 153 160 169 177 193 205 206 199 205 203 201 203 202 206 212
59 120 89 159 360 34 51 315 247 245 56 318 239 32 8 342 354 353 8 7 359 354 3 3 2 356 4 3 10 338 210 233 203 200 206 205 203 208 211 207 204 204 212 203
116 87 76 147 26 157 210 7 348 195 94 10 4 21 40 332 301 294 20 22 358 349 348 354 358 346 343 351 19 19 20 228 272 273 217 209 205 214 211 205 211 215 208 208
86 118 80 112 115 272 92 10 9 25 33 29 352 355 352 346 308 132 45 9 345 332 333 334 335 332 330 326 8 37 31 32 40 27 20 9 216 215 210 215 219 218 212 216
62 74 106 100 99 197 126 257 278 188 255 18 4 335 335 349 2 264 346 343 328 327 323 324 323 316 316 322 321 64 59 31 23 2 352 336 332 299 223 222 221 216 215 223
24 11 117 143 125 297 158 277 331 153 287 281 293 301 313 301 282 302 312 309 309 309 311 315 315 305 297 302 305 342 71 50 21 4 327 330 336 312 297 240 219 216 220 221
169 133 179 82 179 257 155 25 188 241 266 283 293 308 300 292 290 292 298 300 305 310 313 310 307 301 292 300 304 312 4 349 334 334 317 317 327 321 300 285 236 211 215 218
224 173 181 176 210 217 172 186 234 232 278 293 300 298 291 291 290 290 293 296 298 300 295 294 290 292 286 262 279 289 292 281 262 268 305 308 312 285 284 287 274 238 214 218
256 166 176 51 211 203 196 187 192 187 237 268 274 286 294 284 286 289 291 292 293 291 289 291 289 286 280 248 258 264 297 305 296 282 265 255 271 274 268 287 283 250 227 218
197 153 190 251 257 230 224 199 188 225 251 264 267 279 308 295 284 286 284 285 291 288 283 275 275 276 276 286 286 287 314 327 332 325 325 292 268 278 308 284 255 292 237 218
188 181 173 217 208 150 196 182 181 241 266 281 290 299 309 302 293 290 280 286 284 283 282 263 260 269 266 288 298 309 329 304 307 326 333 322 318 321 293 312 303 280 261 242